MRK1274 SUMU-SGAS

Flight info

Callsign MRK1274
Flight time N/A
Altitude 37000
Route VUKAS UM402 KONTO KONTO
Aircraft B738/M-SDE2E3FGHIRWXY/LB1

Departure

Time 2026-04-24 12:00
Airport Carrasco General Cesáreo L. Berisso International Airport (SUMU)

Arrival

Time N/A
Airport Silvio Pettirossi International Airport (SGAS)
Time Latitude Longitude Altitude Speed Heading
2026-04-24 11:14 -34.83862 -56.02459 61 ft 0 kts
2026-04-24 11:14 -34.83874 -56.02460 53 ft 0 kts
2026-04-24 11:45 -34.83880 -56.02460 53 ft 4 kts 359°
2026-04-24 11:45 -34.83907 -56.02457 57 ft 4 kts 348°
2026-04-24 11:45 -34.83932 -56.02447 52 ft 4 kts 326°
2026-04-24 11:46 -34.83947 -56.02426 54 ft 3 kts 276°
2026-04-24 11:46 -34.83947 -56.02421 55 ft 1 kts 271°
2026-04-24 11:53 -34.83947 -56.02433 60 ft 3 kts 269°
2026-04-24 11:53 -34.83948 -56.02475 60 ft 4 kts 269°
2026-04-24 11:53 -34.83948 -56.02506 60 ft 4 kts 269°
2026-04-24 11:53 -34.83948 -56.02527 60 ft 4 kts 269°
2026-04-24 11:54 -34.83948 -56.02577 60 ft 6 kts 270°
2026-04-24 11:54 -34.83949 -56.02613 61 ft 6 kts 267°
2026-04-24 11:54 -34.83961 -56.02686 57 ft 7 kts 250°
2026-04-24 11:54 -34.83975 -56.02722 55 ft 7 kts 240°
2026-04-24 11:55 -34.83999 -56.02772 57 ft 8 kts 245°
2026-04-24 11:55 -34.84012 -56.02840 56 ft 8 kts 268°
2026-04-24 11:55 -34.84011 -56.02911 66 ft 8 kts 271°
2026-04-24 11:55 -34.84010 -56.02980 67 ft 8 kts 271°
2026-04-24 11:56 -34.84012 -56.03050 67 ft 9 kts 262°
2026-04-24 11:56 -34.84031 -56.03119 71 ft 9 kts 245°
2026-04-24 11:56 -34.84061 -56.03190 71 ft 10 kts 241°
2026-04-24 11:56 -34.84093 -56.03262 71 ft 9 kts 242°
2026-04-24 11:57 -34.84123 -56.03331 67 ft 9 kts 242°
2026-04-24 11:57 -34.84155 -56.03405 68 ft 10 kts 241°
2026-04-24 11:57 -34.84188 -56.03478 69 ft 10 kts 242°
2026-04-24 11:57 -34.84219 -56.03551 67 ft 10 kts 243°
2026-04-24 11:58 -34.84242 -56.03625 65 ft 9 kts 270°
2026-04-24 11:58 -34.84201 -56.03668 69 ft 8 kts 16°
2026-04-24 11:58 -34.84176 -56.03638 69 ft 0 kts 52°
2026-04-24 11:59 -34.84168 -56.03626 64 ft 15 kts 52°
2026-04-24 11:59 -34.83947 -56.03263 68 ft 90 kts 53°
2026-04-24 11:59 -34.83442 -56.02435 89 ft 151 kts 53°
2026-04-24 11:59 -34.82735 -56.01255 295 ft 187 kts 56°
2026-04-24 12:00 -34.82065 -55.99922 1223 ft 177 kts 63°
2026-04-24 12:00 -34.81413 -55.98752 2285 ft 167 kts 41°
2026-04-24 12:00 -34.80376 -55.97957 2796 ft 191 kts 19°
2026-04-24 12:00 -34.78973 -55.97968 3049 ft 218 kts 341°
2026-04-24 12:01 -34.77508 -55.98720 3395 ft 237 kts 338°
2026-04-24 12:01 -34.75962 -55.99474 3932 ft 247 kts 340°
2026-04-24 12:01 -34.74276 -56.00197 4358 ft 264 kts 342°
2026-04-24 12:01 -34.72530 -56.00855 5197 ft 268 kts 345°
2026-04-24 12:02 -34.70704 -56.01471 6145 ft 270 kts 346°
2026-04-24 12:02 -34.68899 -56.02029 6969 ft 274 kts 347°
2026-04-24 12:02 -34.67005 -56.02575 7788 ft 278 kts 347°
2026-04-24 12:02 -34.65133 -56.03090 8604 ft 282 kts 348°
2026-04-24 12:03 -34.63200 -56.03603 9407 ft 286 kts 348°
2026-04-24 12:03 -34.61240 -56.04112 10206 ft 291 kts 348°
2026-04-24 12:03 -34.59219 -56.04628 10696 ft 307 kts 348°
2026-04-24 12:03 -34.57047 -56.05178 10871 ft 331 kts 348°
2026-04-24 12:04 -34.54715 -56.05766 11142 ft 351 kts 348°
2026-04-24 12:04 -34.52297 -56.06373 11759 ft 358 kts 348°
2026-04-24 12:04 -34.49853 -56.06983 12543 ft 359 kts 347°
2026-04-24 12:04 -34.47395 -56.07595 13328 ft 361 kts 347°
2026-04-24 12:05 -34.44926 -56.08209 14067 ft 364 kts 347°
2026-04-24 12:05 -34.42428 -56.08830 14715 ft 367 kts 347°
2026-04-24 12:05 -34.39917 -56.09455 15408 ft 369 kts 346°
2026-04-24 12:05 -34.37388 -56.10082 16101 ft 371 kts 346°
2026-04-24 12:06 -34.34847 -56.10710 16788 ft 374 kts 346°
2026-04-24 12:06 -34.32286 -56.11297 17447 ft 377 kts 348°
2026-04-24 12:06 -34.29679 -56.11775 18109 ft 380 kts 349°
2026-04-24 12:06 -34.27053 -56.12211 18710 ft 383 kts 349°
2026-04-24 12:07 -34.24396 -56.12643 19263 ft 386 kts 349°
2026-04-24 12:07 -34.21730 -56.13080 19822 ft 388 kts 348°
2026-04-24 12:07 -34.19045 -56.13528 20376 ft 390 kts 348°
2026-04-24 12:07 -34.16390 -56.13977 20913 ft 393 kts 348°
2026-04-24 12:08 -34.13659 -56.14442 21445 ft 395 kts 348°
2026-04-24 12:08 -34.10926 -56.14911 21969 ft 398 kts 347°
2026-04-24 12:08 -34.08170 -56.15384 22480 ft 400 kts 347°
2026-04-24 12:08 -34.05405 -56.15860 22978 ft 403 kts 347°
2026-04-24 12:09 -34.02613 -56.16339 23462 ft 406 kts 347°
2026-04-24 12:09 -33.99810 -56.16820 23916 ft 408 kts 347°
2026-04-24 12:09 -33.96994 -56.17303 24348 ft 409 kts 347°
2026-04-24 12:09 -33.94176 -56.17785 24799 ft 410 kts 346°
2026-04-24 12:10 -33.91348 -56.18269 25237 ft 411 kts 346°
2026-04-24 12:10 -33.88551 -56.18748 25652 ft 412 kts 346°
2026-04-24 12:10 -33.85703 -56.19236 26058 ft 413 kts 345°
2026-04-24 12:11 -33.79994 -56.20211 26825 ft 416 kts 345°
2026-04-24 12:11 -33.77125 -56.20697 27206 ft 417 kts 345°
2026-04-24 12:11 -33.74247 -56.21177 27581 ft 418 kts 345°
2026-04-24 12:11 -33.71359 -56.21657 27949 ft 419 kts 344°
2026-04-24 12:12 -33.68468 -56.22138 28290 ft 421 kts 344°
2026-04-24 12:12 -33.65556 -56.22622 28660 ft 422 kts 344°
2026-04-24 12:12 -33.62644 -56.23107 28997 ft 423 kts 343°
2026-04-24 12:12 -33.59721 -56.23595 29332 ft 424 kts 343°
2026-04-24 12:13 -33.56794 -56.24083 29659 ft 425 kts 343°
2026-04-24 12:13 -33.53874 -56.24568 30103 ft 423 kts 343°
2026-04-24 12:13 -33.50973 -56.25048 30587 ft 419 kts 343°
2026-04-24 12:13 -33.48097 -56.25523 30989 ft 416 kts 342°
2026-04-24 12:14 -33.45230 -56.25999 31304 ft 416 kts 342°
2026-04-24 12:14 -33.42363 -56.26477 31602 ft 416 kts 342°
2026-04-24 12:14 -33.39534 -56.26948 31934 ft 414 kts 342°
2026-04-24 12:14 -33.36686 -56.27420 32312 ft 412 kts 342°
2026-04-24 12:15 -33.33851 -56.27890 32643 ft 411 kts 342°
2026-04-24 12:15 -33.31021 -56.28360 32939 ft 410 kts 341°
2026-04-24 12:15 -33.28195 -56.28829 33253 ft 410 kts 341°
2026-04-24 12:15 -33.25379 -56.29296 33568 ft 408 kts 341°
2026-04-24 12:16 -33.22562 -56.29763 33871 ft 408 kts 341°
2026-04-24 12:16 -33.19752 -56.30228 34192 ft 407 kts 341°
2026-04-24 12:16 -33.16956 -56.30691 34445 ft 406 kts 341°
2026-04-24 12:16 -33.14153 -56.31155 34670 ft 406 kts 340°
2026-04-24 12:17 -33.11356 -56.31618 34881 ft 406 kts 340°
2026-04-24 12:17 -33.08560 -56.32082 35092 ft 406 kts 340°
2026-04-24 12:17 -33.05765 -56.32545 35318 ft 406 kts 340°
2026-04-24 12:17 -33.02966 -56.33007 35556 ft 405 kts 340°
2026-04-24 12:18 -33.00179 -56.33466 35763 ft 405 kts 340°
2026-04-24 12:18 -32.97391 -56.33925 35954 ft 405 kts 339°
2026-04-24 12:18 -32.94601 -56.34386 36166 ft 405 kts 339°
2026-04-24 12:18 -32.91811 -56.34846 36373 ft 404 kts 339°
2026-04-24 12:19 -32.89026 -56.35307 36545 ft 405 kts 339°
2026-04-24 12:19 -32.86232 -56.35771 36736 ft 405 kts 339°
2026-04-24 12:19 -32.83444 -56.36232 36952 ft 404 kts 339°
2026-04-24 12:19 -32.80696 -56.36688 37140 ft 404 kts 339°
2026-04-24 12:20 -32.77904 -56.37153 37162 ft 406 kts 339°
2026-04-24 12:20 -32.72268 -56.38095 37180 ft 412 kts 339°
2026-04-24 12:21 -32.66555 -56.39044 37179 ft 417 kts 339°
2026-04-24 12:21 -32.60788 -56.39996 37175 ft 419 kts 339°
2026-04-24 12:22 -32.54991 -56.40950 37167 ft 421 kts 339°
2026-04-24 12:22 -32.49180 -56.41907 37174 ft 421 kts 339°
2026-04-24 12:23 -32.43374 -56.42862 37167 ft 421 kts 338°
2026-04-24 12:23 -32.37603 -56.43811 37165 ft 420 kts 338°
2026-04-24 12:24 -32.31808 -56.44764 37166 ft 420 kts 338°
2026-04-24 12:24 -32.26023 -56.45716 37159 ft 419 kts 338°
2026-04-24 12:25 -32.20259 -56.46665 37163 ft 418 kts 338°